Location: Dodgeville
(42.9600°N, 90.1300°W)
Time: 10:51:18
(UTC-06:00)

Uosat F - Visible Passes

Search period start: 18 December 2017 00:00
Search period end: 28 December 2017 00:00
Orbit: 750 x 762 km, 98.7° (Epoch: 18 December)

Date Brightness Start Highest point End Pass type
(mag) Time Alt. Az. Time Alt. Az. Time Alt. Az.
18 Dec 11.0 18:26:05 10° SSE 18:31:07 89° NE 18:36:09 10° NNW visible
18 Dec 14.2 20:09:36 10° W 20:10:32 10° W 20:11:27 10° WNW visible
19 Dec 13.6 06:33:18 10° NE 06:37:25 25° E 06:41:30 10° SSE visible
19 Dec 11.5 17:47:06 10° SE 17:51:44 39° ENE 17:56:22 10° N visible
19 Dec 13.1 19:26:27 10° SSW 19:30:35 26° W 19:34:45 10° NW visible
20 Dec 14.6 05:56:51 10° E 05:57:27 10° E 05:58:04 10° E visible
20 Dec 12.4 17:09:15 10° ESE 17:12:36 18° ENE 17:15:56 10° NNE visible
20 Dec 11.5 18:45:56 10° S 18:50:52 60° WSW 18:55:51 10° NNW visible
21 Dec 12.8 06:52:38 10° NNE 06:57:18 38° E 07:01:56 10° SSE visible
21 Dec 11.0 18:06:29 10° SSE 18:11:24 59° ENE 18:16:19 10° N visible
21 Dec 13.7 19:47:20 10° SW 19:50:32 17° W 19:53:45 10° NW visible
22 Dec 14.0 06:14:21 10° NE 06:17:28 16° E 06:20:34 10° SE visible
22 Dec 11.9 17:28:02 10° ESE 17:32:08 26° ENE 17:36:15 10° N visible
22 Dec 12.4 19:06:02 10° SSW 19:10:42 39° W 19:15:24 10° NNW visible
23 Dec 11.0 18:26:06 10° SSE 18:31:07 88° ENE 18:36:09 10° NNW visible
23 Dec 14.2 20:09:27 10° W 20:10:32 11° W 20:11:37 10° WNW visible
24 Dec 13.6 06:33:18 10° NE 06:37:24 25° E 06:41:29 10° SSE visible
24 Dec 11.5 17:47:08 10° SE 17:51:45 38° ENE 17:56:22 10° N visible
24 Dec 13.1 19:26:26 10° SSW 19:30:35 26° W 19:34:46 10° NW visible
25 Dec 14.6 05:57:22 10° E 05:57:27 10° E 05:57:33 10° E visible
25 Dec 12.4 17:09:19 10° ESE 17:12:36 18° ENE 17:15:54 10° NNE visible
25 Dec 11.5 18:45:56 10° S 18:50:53 61° WSW 18:55:51 10° NNW visible
26 Dec 12.8 06:52:38 10° NNE 06:57:18 37° E 07:01:55 10° SSE visible
26 Dec 11.0 18:06:30 10° SSE 18:11:23 58° ENE 18:16:19 10° N visible
26 Dec 13.7 19:47:16 10° SW 19:50:31 17° W 19:53:47 10° NW visible
27 Dec 14.0 06:14:23 10° NE 06:17:28 16° E 06:20:31 10° SE visible
27 Dec 12.0 17:28:04 10° ESE 17:32:09 26° ENE 17:36:14 10° N visible
27 Dec 12.3 19:06:01 10° SSW 19:10:42 40° W 19:15:25 10° NNW visible
